星链-34861(STARLINK-34861)

导读

STARLINK-35829是美国太空探索技术公司(SpaceX)星链(Starlink)卫星互联网项目的一颗卫星,于2025年11月6日由美国发射升空,属于星链项目中低轨卫星星座的组成部分,主要用于提供全球覆盖的高速卫星互联网服务,尤其服务地面基础设施覆盖不足的偏远地区。

基本信息
目录编号:
66350
目录名称:
STARLINK-35829
国际标识:
2025-254C
轨道中心:
EARTH
卫星名称:
星链-34861
卫星全名:
星链-34861(STARLINK-34861)
卫星状态:
在轨 (已飞行219 天)
发射日期:
2025-11-06 UTC
国别 :
美国 (US)
星等 :
--
轨道信息
数据来源 国际轨道数据 AOE轨道数据
星历时间 2026-06-12T15:03:44+0800
1天前
查看轨道信息
2026-06-12T00:00:00+0800
1天前
查看轨道信息
半长轴 6848.832km 6848.902km
偏心率 0.0001364 0.0001548
轨道倾角 53.159° 53.156°
近地点辐角 84.701° 77.371°
升交点赤经 152.774° 155.698°
平近点角 275.415° 60.195°
近地点 469.76km 469.704km
远地点 471.63km 471.826km
周期 94.012分钟 94.014分钟
每日圈数 15.317153 15.316917
详细信息
固有亮度:
5
最大亮度:
2.5
卫星平台:
Starlink V1.0
覆盖范围:
全球
运营商:
太空探索技术公司
运营商所在国:
美国
制造商(研发单位):
太空探索技术公司
制造商所在国:
美国
使用方式:
暂无
卫星简介
Starlink 计划是 SpaceX 推出的全球卫星互联网项目,通过发射低轨道卫星,为全球尤其是偏远地区提供高速、低延迟的互联网服务。自 2019 年起,Starlink 已部署数千颗卫星,旨在缩小全球数字鸿沟,推动互联网普及。该项目还为军事、航空等行业提供通信支持,带来广泛经济效益。
2D轨道图
3D轨道图
轨道高度分析图
轨道倾角分析图
轨道综合分析图
查看轨道综合分析图